{"data":{"norad_id":63748,"intl_designator":"2025-088AA","name":"KUIPER-00035","alt_names":[],"object_type":"PAYLOAD","status":"ACTIVE","operator":null,"country":"US","launch_date":"2025-04-28","launch_site_code":"AFETR","launch_vehicle":null,"mission":null,"orbit_class":"UNKNOWN","rcs_meters":null,"size_class":null,"mass_kg":null,"dimensions":null,"purposes":[],"wikipedia_slug":null,"has_3d_model":false,"image_url":null,"decayed_at":null,"tle_current":{"epoch":"2026-09-21T10:39:46.738944Z","epoch_age_seconds":122992,"freshness":"FRESH","line1":"1 63748U 25088AA  26264.44429096  .00000884  00000+0  14503-3 0  9994","line2":"2 63748  51.9029 327.4613 0000386  87.7909 272.3097 14.79912895 76513","mean_motion":14.79912895,"eccentricity":3.86e-5,"inclination_deg":51.9029,"raan_deg":327.4613,"arg_perigee_deg":87.7909,"mean_anomaly_deg":272.3097,"bstar":0.00014503,"rev_number":7651,"period_min":97.303024040479,"perigee_km":629.32859778315,"apogee_km":629.86959500979,"semimajor_km":7007.7360963965,"source":"CELESTRAK","updated_at":"2026-09-22T09:00:29.322431Z"}}}